This demonstration page uses our WeatherBlox Daily Observations layout. Learn more.

Left ArrowRight Arrow

39.29038, -76.61219

Hourly Observations for January 26, 2015

Temp ( °F °C ) Dew Point ( °F °C ) Humidity (%) Winds ( mph kmh ) Pressure ( in mb ) Visibility ( mi km ) Precip ( " mm )
12:54 am 00:54 undefined 40 4.4 33 0.6 77 77 undefined N/A 29.87 1011 N/A 0.00 0.00
1:54 am 01:54 undefined 40 4.4 33 0.6 77 77 undefined N/A 29.87 1011 N/A 0.00 0.00
2:54 am 02:54 undefined 38 3.3 34 1.1 86 86 undefined N/A 29.84 1010 N/A 0.01 0.25
3:54 am 03:54 undefined 35 1.7 32 0 89 89 undefined N/A 29.83 1010 N/A 0.01 0.25
4:54 am 04:54 undefined 33 0.6 29 -1.7 85 85 undefined N/A 29.84 1010 N/A 0.00 0.00
5:54 am 05:54 undefined 32 0 28 -2.2 85 85 undefined N/A 29.84 1010 N/A 0.00 0.00
6:54 am 06:54 undefined 32 0 26 -3.3 79 79 undefined N/A 29.85 1011 N/A 0.00 0.00
7:54 am 07:54 undefined 31 -0.6 28 -2.2 89 89 undefined N/A 29.84 1011 N/A 0.01 0.25
8:54 am 08:54 undefined 31 -0.6 28 -2.2 89 89 undefined N/A 29.83 1010 N/A 0.02 0.51
9:54 am 09:54 undefined 31 -0.6 28 -2.2 89 89 undefined N/A 29.83 1010 N/A 0.02 0.51
10:54 am 10:54 undefined 30 -1.1 27 -2.8 88 88 undefined N/A 29.83 1010 N/A 0.02 0.51
11:54 am 11:54 undefined 30 -1.1 27 -2.8 88 88 undefined N/A 29.80 1009 N/A 0.01 0.25
12:54 pm 12:54 undefined 31 -0.6 27 -2.8 85 85 undefined N/A 29.76 1008 N/A 0.01 0.25
1:54 pm 13:54 undefined 31 -0.6 27 -2.8 85 85 undefined N/A 29.73 1007 N/A 0.00 0.00
2:54 pm 14:54 undefined 31 -0.6 26 -3.3 82 82 undefined N/A 29.72 1006 N/A 0.00 0.00
3:54 pm 15:54 undefined 31 -0.6 26 -3.3 82 82 undefined N/A 29.72 1007 N/A 0.00 0.00
4:54 pm 16:54 undefined 30 -1.1 25 -3.9 82 82 undefined N/A 29.72 1007 N/A 0.00 0.00
5:54 pm 17:54 undefined 29 -1.7 24 -4.4 82 82 undefined N/A 29.74 1007 N/A 0.00 0.00
6:54 pm 18:54 undefined 29 -1.7 23 -5 78 78 undefined N/A 29.74 1007 N/A 0.00 0.00
7:54 pm 19:54 undefined 28 -2.2 24 -4.4 85 85 undefined N/A 29.74 1007 N/A 0.00 0.00
8:54 pm 20:54 undefined 28 -2.2 23 -5 81 81 undefined N/A 29.75 1007 N/A 0.01 0.25
9:54 pm 21:54 undefined 28 -2.2 23 -5 81 81 undefined N/A 29.74 1007 N/A 0.00 0.00
10:54 pm 22:54 undefined 27 -2.8 22 -5.6 81 81 undefined N/A 29.74 1007 N/A 0.00 0.00
11:54 pm 23:54 undefined 26 -3.3 22 -5.6 84 84 undefined N/A 29.74 1007 N/A 0.00 0.00

Powered by AerisWeather